TimeAKDT,TemperatureF,Dew PointF,Humidity,Sea Level PressureIn,VisibilityMPH,Wind Direction,Wind SpeedMPH,Gust SpeedMPH,PrecipitationIn,Events,Conditions,WindDirDegrees,DateUTC
12:53 AM,34.0,30.9,89,29.93,10.0,NE,5.8,-,N/A,,Mostly Cloudy,50,2013-10-15 08:53:00
1:53 AM,34.0,32.0,92,29.92,10.0,Calm,Calm,-,N/A,,Overcast,0,2013-10-15 09:53:00
2:53 AM,35.1,32.0,89,29.94,10.0,Calm,Calm,-,N/A,,Overcast,0,2013-10-15 10:53:00
3:53 AM,35.1,32.0,89,29.93,10.0,NE,3.5,-,N/A,,Overcast,40,2013-10-15 11:53:00
4:53 AM,36.0,32.0,86,29.93,10.0,Calm,Calm,-,N/A,,Overcast,0,2013-10-15 12:53:00
5:53 AM,36.0,33.1,89,29.93,10.0,NNE,3.5,-,N/A,,Overcast,20,2013-10-15 13:53:00
6:53 AM,37.9,34.0,86,29.91,10.0,Calm,Calm,-,N/A,,Overcast,0,2013-10-15 14:53:00
7:53 AM,36.0,32.0,86,29.91,10.0,Calm,Calm,-,N/A,,Mostly Cloudy,0,2013-10-15 15:53:00
8:53 AM,37.0,33.1,86,29.91,10.0,North,3.5,-,N/A,,Overcast,10,2013-10-15 16:53:00
9:53 AM,37.0,33.1,86,29.91,10.0,Calm,Calm,-,N/A,,Overcast,0,2013-10-15 17:53:00
10:53 AM,39.0,35.1,86,29.91,10.0,Calm,Calm,-,N/A,,Overcast,0,2013-10-15 18:53:00
11:53 AM,41.0,36.0,82,29.90,10.0,Calm,Calm,-,N/A,,Overcast,0,2013-10-15 19:53:00
12:53 PM,43.0,36.0,76,29.90,10.0,NNW,3.5,-,N/A,,Overcast,340,2013-10-15 20:53:00
1:53 PM,46.0,35.1,66,29.90,10.0,NNE,3.5,-,N/A,,Overcast,20,2013-10-15 21:53:00
2:53 PM,48.0,34.0,58,29.89,10.0,Calm,Calm,-,N/A,,Overcast,0,2013-10-15 22:53:00
3:53 PM,46.9,35.1,63,29.86,10.0,NE,4.6,-,N/A,,Overcast,40,2013-10-15 23:53:00
4:53 PM,46.9,35.1,63,29.85,10.0,Calm,Calm,-,N/A,,Overcast,0,2013-10-16 00:53:00
5:53 PM,45.0,37.0,74,29.84,10.0,NE,4.6,-,N/A,Rain,Light Rain,40,2013-10-16 01:53:00
6:53 PM,44.1,37.0,76,29.82,10.0,NNE,4.6,-,N/A,,Overcast,20,2013-10-16 02:53:00
7:53 PM,45.0,36.0,71,29.83,10.0,North,4.6,-,N/A,Rain,Light Rain,360,2013-10-16 03:53:00
8:53 PM,44.1,37.9,79,29.82,10.0,Calm,Calm,-,N/A,Rain,Light Rain,0,2013-10-16 04:53:00
9:53 PM,44.1,37.9,79,29.83,10.0,Calm,Calm,-,N/A,Rain,Light Rain,0,2013-10-16 05:53:00
10:53 PM,44.1,37.9,79,29.87,10.0,Calm,Calm,-,N/A,Rain,Light Rain,0,2013-10-16 06:53:00
11:53 PM,43.0,39.0,86,29.89,10.0,North,3.5,-,N/A,,Overcast,10,2013-10-16 07:53:00